Home > Weather > Nagano > Past weeks

Flag for Japan Weather for the Past 2 Weeks in Nagano, Japan

Now
39 °F

Chilly.


Feels Like: 34 °F
Forecast: 16 / 51 °F
Wind: 6 mph from Northeast

Location: Nagano

Current Time: Feb 11, 2016 at 2:23:50 PM

Latest Report: Feb 11, 2016 at 1:00 PM


Visibility: N/A

Pressure: 30.47 "Hg

Humidity: 55%

Dew point: 24 °F

Location of NaganoLocation

Historic Weather in Nagano — Graph

°F

Nagano Temperature Yesterday

Maximum temperature yesterday: 36 °F (at 2:00 PM)
Minimum temperature yesterday: 27 °F (at 5:00 AM)
Average temperature yesterday: 30 °F

High & Low Weather Summary for the Past Weeks

 TemperatureHumidityPressure
High44 °F (Jan 28, 3:00 PM)100% (Jan 29, 8:00 AM)30.53 "Hg (Jan 29, 8:00 AM)
Low19 °F (Feb 8, 5:00 AM)38% (Feb 4, 3:00 PM)29.79 "Hg (Feb 9, 1:00 PM)
Average31 °F79%30.18 "Hg
* Reported Jan 27 12:00 Noon — Feb 11 12:00 Noon, Nagano, Weather by CustomWeather, © 2016

Note: Actual official high and low records may vary slightly from our data, if they occured in-between our weather recording intervals... More about our weather records

Advertising

Nagano Weather History for the Previous 24 Hours

 ConditionsComfort  
Time TempWeatherWind HumidityBarometerVisibility
12:00 PM
Thu, Feb 11
36 °FChilly.3 mph60%30.49 "HgN/A
11:00 AM35 °FChilly.2 mph68%30.50 "HgN/A
10:00 AM30 °FChilly.1 mph78%30.52 "HgN/A
9:00 AM28 °FOvercast.1 mph77%30.53 "Hg9 mi
8:00 AM26 °FChilly.1 mph82%30.52 "HgN/A
6:00 AM24 °FCold.2 mph86%30.49 "HgN/A
5:00 AM24 °FCold.1 mph88%30.48 "HgN/A
4:00 AM25 °FChilly.2 mph88%30.46 "HgN/A
3:00 AM25 °FPassing clouds.3 mph85%30.45 "Hg12 mi
2:00 AM26 °FChilly.2 mph86%30.45 "HgN/A
1:00 AM28 °FChilly.3 mph83%30.43 "HgN/A
12:00 AM28 °FChilly.5 mph81%30.42 "HgN/A
11:00 PM
Wed, Feb 10
28 °FChilly.6 mph85%30.40 "HgN/A
10:00 PM28 °FChilly.2 mph85%30.39 "HgN/A
9:00 PM29 °FPassing clouds.5 mph82%30.38 "Hg12 mi
8:00 PM30 °FChilly.3 mph85%30.37 "HgN/A
7:00 PM30 °FChilly.6 mph78%30.34 "HgN/A
6:00 PM31 °FChilly.6 mph77%30.32 "HgN/A
5:00 PM32 °FChilly.10 mph69%30.29 "HgN/A
4:00 PM34 °FChilly.8 mph67%30.24 "HgN/A
3:00 PM35 °FPartly sunny.12 mph67%30.22 "Hg19 mi
2:00 PM36 °FChilly.10 mph61%30.20 "HgN/A
Weather by CustomWeather, © 2016

See weather overviewHow to use our weather pages